STARLINK-35417

Last updated on Sun Dec 07 2025 00:02:05 GMT+0000 (Coordinated Universal Time)

1 66335U 25253S 25340.40719731 .00239254 00000+0 55726-2 0 9997 2 66335 43.0007 22.3071 0000819 252.9500 107.1267 15.40614696 5949
UTC large
Height (km)
Speed (km/s)
/
Latitude / Longitude
Inclination (degrees)
Orbital Period (minutes)
Azimuth
Elevation
Range (km)
Doppler Factor

Next 0 passes for location: London (51.5072 / 0.1276)

Sorry there are no passes over London.